Saratoga Shively Field Airpor, WY

6:26 PM MST on November 17, 2017 (GMT -0700)
Shively

Weather History for KSAA - March, 2014

Change the Weather History Date:

Thursday, March 13, 2014

  Actual Average Record
Temperature  
Mean Temperature 34 °F -  
Max Temperature 46 °F 44 °F 51 °F (2015)
Min Temperature 21 °F 19 °F 21 °F (2014)
Degree Days  
Heating Degree Days 32    
Moisture  
Dew Point 14 °F    
Average Humidity 46    
Maximum Humidity 68    
Minimum Humidity 25    
Precipitation  
Precipitation 0.00 in - - ()
Sea Level Pressure  
Sea Level Pressure 30.04 in    
Wind  
Wind Speed 10 mph (SSW)    
Max Wind Speed 24 mph    
Max Gust Speed 34 mph    
Visibility 10 miles    
Events      
Averages and records for this station are not official NWS values.
T = Trace of Precipitation, MM = Missing Value Source: NWS Daily Summary

Daily Weather History Graph

Daily Weather History Graph

Search for Another Location

Airport or City:

Trip Planner

Search our weather history database for the weather conditions in past years. The results will help you decide how hot, cold, wet, or windy it might be!

Date:

Astronomy

Mar. 13, 2014 Rise Set
Actual Time 7:22 AM MDT 7:11 PM MDT
Civil Twilight 6:54 AM MDT 7:39 PM MDT
Nautical Twilight 6:22 AM MDT 8:11 PM MDT
Astronomical Twilight 5:50 AM MDT 8:44 PM MDT
Moon 4:39 PM MDT (3/13) 5:32 AM MDT (3/13)
Length of Visible Light 12h 44m
Length of Day
11h 49m
Waxing Gibbous, 92% of the Moon is Illuminated
Mar 13
Waxing Gibbous
Mar 16
Full
Mar 23
Last Quarter
Mar 30
New
Apr 7
First Quarter

Hourly Weather History & Observations

Time (MDT) Temp. Windchill Dew Point Humidity Pressure Visibility Wind Dir Wind Speed Gust Speed Precip Events Conditions
12:15 AM 23.0 °F 14.7 °F 12.2 °F 63% 30.18 in 10.0 mi SSE 6.9 mph - N/A   Clear
12:35 AM 23.0 °F 14.7 °F 12.2 °F 63% 30.18 in 10.0 mi SE 6.9 mph - N/A   Clear
12:55 AM 24.8 °F 15.3 °F 10.4 °F 54% 30.17 in 10.0 mi SSE 9.2 mph - N/A   Clear
1:15 AM 23.0 °F 14.7 °F 10.4 °F 59% 30.17 in 10.0 mi SSE 6.9 mph - N/A   Clear
1:35 AM 23.0 °F - 10.4 °F 59% 30.16 in 10.0 mi Calm Calm - N/A   Clear
1:55 AM 21.2 °F 11.7 °F 10.4 °F 63% 30.15 in 10.0 mi SSE 8.1 mph - N/A   Clear
2:15 AM 21.2 °F 10.1 °F 10.4 °F 63% 30.15 in 10.0 mi SSE 10.4 mph - N/A   Clear
2:35 AM 23.0 °F 13.1 °F 10.4 °F 59% 30.14 in 10.0 mi SSE 9.2 mph - N/A   Clear
2:55 AM 24.8 °F 16.1 °F 8.6 °F 50% 30.14 in 10.0 mi South 8.1 mph - N/A   Clear
3:15 AM 24.8 °F 16.9 °F 8.6 °F 50% 30.14 in 10.0 mi ESE 6.9 mph - N/A   Clear
3:35 AM 23.0 °F 11.7 °F 8.6 °F 54% 30.13 in 10.0 mi SSE 11.5 mph - N/A   Clear
3:55 AM 21.2 °F 10.1 °F 10.4 °F 63% 30.12 in 10.0 mi SE 10.4 mph - N/A   Clear
4:15 AM 21.2 °F 10.1 °F 10.4 °F 63% 30.11 in 10.0 mi South 10.4 mph - N/A   Clear
4:35 AM 21.2 °F 11.7 °F 10.4 °F 63% 30.11 in 10.0 mi SSE 8.1 mph - N/A   Clear
4:55 AM 23.0 °F 13.1 °F 10.4 °F 59% 30.11 in 10.0 mi SSE 9.2 mph - N/A   Clear
5:15 AM 23.0 °F 12.4 °F 10.4 °F 59% 30.11 in 10.0 mi SE 10.4 mph - N/A   Clear
5:35 AM 23.0 °F 12.4 °F 12.2 °F 63% 30.11 in 10.0 mi SE 10.4 mph - N/A   Clear
5:55 AM 21.2 °F 10.9 °F 12.2 °F 68% 30.11 in 10.0 mi SE 9.2 mph - N/A   Clear
6:15 AM 23.0 °F 18.4 °F 12.2 °F 63% 30.10 in 10.0 mi SSE 3.5 mph - N/A   Clear
6:35 AM 21.2 °F 11.7 °F 12.2 °F 68% 30.10 in 10.0 mi SSE 8.1 mph - N/A   Clear
6:55 AM 23.0 °F 14.7 °F 12.2 °F 63% 30.10 in 10.0 mi South 6.9 mph - N/A   Clear
7:15 AM 21.2 °F 8.9 °F 12.2 °F 68% 30.10 in 10.0 mi SE 12.7 mph - N/A   Clear
7:35 AM 24.8 °F 12.4 °F 10.4 °F 54% 30.09 in 10.0 mi SE 15.0 mph - N/A   Clear
7:55 AM 26.6 °F 16.2 °F 10.4 °F 51% 30.09 in 10.0 mi SE 11.5 mph 16.1 mph N/A   Clear
8:15 AM 28.4 °F 24.6 °F 12.2 °F 51% 30.09 in 10.0 mi ESE 3.5 mph - N/A   Clear
8:35 AM 32.0 °F 26.4 °F 14.0 °F 48% 30.09 in 10.0 mi SSE 5.8 mph - N/A   Clear
8:55 AM 33.8 °F 27.7 °F 14.0 °F 44% 30.09 in 10.0 mi ESE 6.9 mph - N/A   Clear
9:15 AM 35.6 °F 28.0 °F 14.0 °F 41% 30.09 in 10.0 mi SSE 10.4 mph - N/A   Clear
9:35 AM 35.6 °F 28.0 °F 12.2 °F 38% 30.09 in 10.0 mi SSE 10.4 mph - N/A   Clear
9:55 AM 37.4 °F 32.8 °F 12.2 °F 36% 30.08 in 10.0 mi South 5.8 mph - N/A   Clear
10:15 AM 41.0 °F - 12.2 °F 31% 30.08 in 10.0 mi Calm Calm - N/A   Clear
10:35 AM 41.0 °F 33.5 °F 12.2 °F 31% 30.08 in 10.0 mi WSW 13.8 mph 19.6 mph N/A   Clear
10:55 AM 41.0 °F 31.6 °F 14.0 °F 33% 30.07 in 10.0 mi WSW 20.7 mph 26.5 mph N/A   Clear
11:15 AM 41.0 °F 33.1 °F 14.0 °F 33% 30.06 in 10.0 mi WSW 15.0 mph 24.2 mph N/A   Clear
11:35 AM 41.0 °F 32.2 °F 14.0 °F 33% 30.05 in 10.0 mi WSW 18.4 mph 24.2 mph N/A   Clear
11:55 AM 41.0 °F 32.5 °F 14.0 °F 33% 30.04 in 10.0 mi West 17.3 mph 25.3 mph N/A   Clear
12:15 PM 42.8 °F 35.4 °F 10.4 °F 27% 30.03 in 10.0 mi WSW 15.0 mph 24.2 mph N/A   Clear
12:35 PM 42.8 °F 35.1 °F 12.2 °F 29% 30.03 in 10.0 mi WSW 16.1 mph 21.9 mph N/A   Clear
12:55 PM 42.8 °F 34.8 °F 14.0 °F 31% 30.02 in 10.0 mi SW 17.3 mph - N/A   Clear
1:16 PM 44.6 °F 36.6 °F 14.0 °F 29% 30.00 in 10.0 mi SW 19.6 mph 26.5 mph N/A   Clear
1:35 PM 44.6 °F 36.1 °F 14.0 °F 29% 29.99 in 10.0 mi SW 21.9 mph 27.6 mph N/A   Clear
1:55 PM 44.6 °F 36.6 °F 14.0 °F 29% 29.99 in 10.0 mi SW 19.6 mph 25.3 mph N/A   Clear
2:15 PM 44.6 °F 36.9 °F 14.0 °F 29% 29.98 in 10.0 mi WSW 18.4 mph 27.6 mph N/A   Clear
2:35 PM 44.6 °F 35.7 °F 12.2 °F 27% 29.97 in 10.0 mi WSW 24.2 mph 33.4 mph N/A   Clear
2:55 PM 44.6 °F 36.6 °F 14.0 °F 29% 29.96 in 10.0 mi WSW 19.6 mph 34.5 mph N/A   Clear
3:15 PM 44.6 °F 37.2 °F 14.0 °F 29% 29.96 in 10.0 mi WSW 17.3 mph 28.8 mph N/A   Clear
3:35 PM 44.6 °F 36.9 °F 14.0 °F 29% 29.96 in 10.0 mi WSW 18.4 mph 21.9 mph N/A   Scattered Clouds
3:55 PM 46.4 °F 39.5 °F 14.0 °F 27% 29.96 in 10.0 mi WSW 17.3 mph 23.0 mph N/A   Scattered Clouds
4:15 PM 46.4 °F 40.4 °F 12.2 °F 25% 29.94 in 10.0 mi WSW 13.8 mph 27.6 mph N/A   Clear
4:35 PM 46.4 °F 39.5 °F 14.0 °F 27% 29.94 in 10.0 mi WSW 17.3 mph 27.6 mph N/A   Clear
4:55 PM 46.4 °F 39.0 °F 12.2 °F 25% 29.94 in 10.0 mi WSW 19.6 mph 27.6 mph N/A   Clear
5:15 PM 44.6 °F 37.8 °F 12.2 °F 27% 29.93 in 10.0 mi West 15.0 mph 23.0 mph N/A   Clear
5:35 PM 46.4 °F 39.5 °F 12.2 °F 25% 29.92 in 10.0 mi West 17.3 mph 23.0 mph N/A   Clear
5:55 PM 44.6 °F 37.2 °F 14.0 °F 29% 29.93 in 10.0 mi West 17.3 mph 23.0 mph N/A   Clear
6:15 PM 42.8 °F 34.8 °F 14.0 °F 31% 29.92 in 10.0 mi West 17.3 mph 25.3 mph N/A   Clear
6:35 PM 41.0 °F 33.5 °F 17.6 °F 39% 29.93 in 10.0 mi West 13.8 mph - N/A   Clear
6:55 PM 39.2 °F 31.6 °F 17.6 °F 42% 29.93 in 10.0 mi West 12.7 mph - N/A   Clear
7:15 PM 37.4 °F 30.8 °F 19.4 °F 48% 29.94 in 10.0 mi West 9.2 mph - N/A   Clear
7:35 PM 35.6 °F 29.2 °F 17.6 °F 48% 29.95 in 10.0 mi West 8.1 mph - N/A   Clear
7:55 PM 35.6 °F 27.5 °F 17.6 °F 48% 29.95 in 10.0 mi West 11.5 mph - N/A   Clear
8:15 PM 33.8 °F 24.8 °F 17.6 °F 52% 29.96 in 10.0 mi West 12.7 mph - N/A   Clear
8:35 PM 33.8 °F 25.3 °F 17.6 °F 52% 29.97 in 10.0 mi West 11.5 mph - N/A   Clear
8:55 PM 32.0 °F 23.0 °F 17.6 °F 55% 29.98 in 10.0 mi West 11.5 mph - N/A   Clear
9:15 PM 32.0 °F 24.2 °F 19.4 °F 60% 29.98 in 10.0 mi WSW 9.2 mph - N/A   Clear
9:35 PM 32.0 °F 24.2 °F 19.4 °F 60% 29.99 in 10.0 mi WSW 9.2 mph - N/A   Clear
9:55 PM 32.0 °F 22.1 °F 19.4 °F 60% 29.98 in 10.0 mi WSW 13.8 mph - N/A   Clear
10:15 PM 32.0 °F 22.5 °F 17.6 °F 55% 29.99 in 10.0 mi WSW 12.7 mph - N/A   Clear
10:35 PM 32.0 °F 23.0 °F 17.6 °F 55% 30.00 in 10.0 mi West 11.5 mph - N/A   Clear
10:55 PM 32.0 °F 23.0 °F 17.6 °F 55% 30.01 in 10.0 mi West 11.5 mph - N/A   Clear
11:15 PM 32.0 °F 23.0 °F 17.6 °F 55% 30.01 in 10.0 mi WSW 11.5 mph - N/A   Clear
11:35 PM 32.0 °F 22.1 °F 17.6 °F 55% 30.01 in 10.0 mi WSW 13.8 mph - N/A   Clear
11:55 PM 32.0 °F 22.5 °F 15.8 °F 51% 30.01 in 10.0 mi WSW 12.7 mph - N/A   Clear